Location: �chenoz-la-M�line
(47.6009°N, 6.1354°E)
Time: 12:27:30
(UTC+00:00)

SAR-Lupe-4 - Pass Details

Date: 27 January 2021
Orbit: 480 x 484 km, 98.2° (Epoch: 27 February)

Event Time Altitude Azimuth Distance (km) Brightness Sun altitude
Rises 05:42:07 0° 186° (S) 2,540 7.3 -14.5°
Reaches altitude 10° 05:44:19 10° 196° (SSW) 1,665 6.2 -14.1°
Maximum altitude 05:47:35 33° 262° (W) 835 4.2 -13.6°
Enters shadow 05:49:47 17° 318° (NW) 1,285 5.2 -13.2°
